Regional Weather Roundup
Issued by NWS Charleston, WV

Home | Current Version | Previous Version | Text Only | Print | Product List | Glossary On
Versions: 1 2 3 4 5 6 7 8 9 10 11 12 13 14 15 16 17 18 19 20 21 22 23 24 25 26 27 28 29 30 31 32 33 34 35 36 37 38 39 40 41 42 43 44 45 46 47 48 49 50
000
ASUS41 KRLX 012110
RWRRLX
West Virginia Regional Weather Roundup
National Weather Service Charleston WV
500 PM EDT TUE SEP 01 2015

Note: "fair" indicates few or no clouds below 12,000 feet with no
significant weather and/or obstructions to visibility.

WVZ003-012200-
Northern Panhandle of West Virginia

CITY           SKY/WX    TMP DP  RH WIND       PRES   REMARKS
WHEELING       PTSUNNY   85  65  51 S5        30.09F
$$

WVZ009-012200-
Northwest West Virginia

CITY           SKY/WX    TMP DP  RH WIND       PRES   REMARKS
PARKERSBURG    MOSUNNY   88  64  44 VRB6      30.10F
$$

WVZ006-012200-
Western West Virginia

CITY           SKY/WX    TMP DP  RH WIND       PRES   REMARKS
HUNTINGTON     MOSUNNY   86  63  45 NW3       30.09F
$$

WVZ015-012200-
West Central West Virginia

CITY           SKY/WX    TMP DP  RH WIND       PRES   REMARKS
CHARLESTON     MOSUNNY   90  63  40 VRB5      30.09F
$$

WVZ022-031-012200-
North Central West Virginia

CITY           SKY/WX    TMP DP  RH WIND       PRES   REMARKS
CLARKSBURG     SUNNY     88  64  44 S7        30.09F
MORGANTOWN     PTSUNNY   91  61  36 VRB6      30.09F
$$

WVZ025-035-042-045-012200-
Southern West Virginia

CITY           SKY/WX    TMP DP  RH WIND       PRES   REMARKS
BECKLEY        PTSUNNY   81  60  48 VRB3      30.19S
LOGAN            N/A     84  64  51 VRB3      30.14S
BLUEFIELD      CLOUDY    82  59  45 NE6       30.21F
LEWISBURG      PTSUNNY   81  63  54 CALM      30.18S
$$

WVZ047-012200-
Northern Mountains of West Virginia

CITY           SKY/WX    TMP DP  RH WIND       PRES   REMARKS
ELKINS         PTSUNNY   82  63  52 VRB3      30.15F
$$

WVZ052-012200-
Eastern Panhandle of West Virginia

CITY           SKY/WX    TMP DP  RH WIND       PRES   REMARKS
MARTINSBURG    MOSUNNY   92  63  38 N6        30.04S
PETERSBURG     PTSUNNY   89  65  45 CALM      30.07S
$$


USA.gov is the U.S. government's official web portal to all federal, state and local government web resources and services.